Regional Weather Roundup
Issued by NWS

Home | Current Version | Previous Version | Text Only | Print | Product List | Glossary Off
Versions: 1 2 3 4 5 6 7 8 9 10 11 12 13 14 15 16 17 18 19 20 21 22 23 24 25 26 27 28 29 30 31 32 33 34 35 36 37 38 39 40 41 42 43 44 45 46 47 48 49 50

000
ASUS43 KMKX 310300
RWRWI

WISCONSIN REGIONAL WEATHER ROUNDUP
NATIONAL WEATHER SERVICE MILWAUKEE/SULLIVAN WI
1000 PM CDT THU OCT 30 2014

NOTE: "FAIR" INDICATES FEW OR NO CLOUDS BELOW 12,000 FEET WITH NO
SIGNIFICANT WEATHER AND/OR OBSTRUCTIONS TO VISIBILITY.

WIZ001-002-006>008-014>016-023>028-310400-
NORTHWEST WISCONSIN

CITY           SKY/WX    TMP DP  RH WIND       PRES   REMARKS
SUPERIOR ARPT  PTCLDY    31  21  64 NW21G28   30.29R WCI  19
ASHLAND        LGT SNOW  32  27  81 NW17G29   30.22R WCI  21
HAYWARD        CLOUDY    32  22  66 N13G20    30.22R WCI  22
SIREN          PTCLDY    33  15  48 N17G26    30.27R WCI  22
CUMBERLAND     CLOUDY    32  23  69 NW17G28   30.22R WCI  21
RICE LAKE      CLOUDY    35  22  60 NW15G29   30.23R WCI  25
CHETEK         CLOUDY    36  24  62 NW14G22   30.21R WCI  27
LADYSMITH      CLOUDY    34  29  82 NW18G30   30.17R WCI  23
EAU CLAIRE     CLOUDY    40  29  64 MISG      30.18R
MENOMONIE      CLOUDY    37  26  62 NW23G39   30.21R WCI  26
NEW RICHMOND   CLOUDY    37  21  54 NW25G35   30.25R WCI  25
OSCEOLA        PTCLDY    35  20  53 NW17G30   30.30R WCI  25
$$

WIZ003>005-009-010-017-018-310400-
NORTH CENTRAL WISCONSIN

CITY           SKY/WX    TMP DP  RH WIND       PRES   REMARKS
MANITOWISH WTR LGT SNOW  32  32 100 NW12G21   30.06S WCI  23
ARBOR VITAE    CLOUDY    36  34  90 N13G21    30.05S WCI  28
WOODRUFF       CLOUDY    36  34  90 N13G21    30.05S WCI  28
RHINELANDER    CLOUDY    34  29  82 NW13G18   30.05R WCI  25
EAGLE RIVER    LGT SNOW  33  32  98 NW7       30.03S WCI  27
LAND O LAKES   LGT SNOW  33  32  95 NW10      30.03S WCI  25
PHILLIPS       CLOUDY    32  29  87 NW16G23   30.09R WCI  22
TOMAHAWK       CLOUDY    35  31  88 NW10G23   30.06S WCI  27
MEDFORD        CLOUDY    36  30  79 N18G24    30.08R WCI  25
MERRILL        CLOUDY    36  32  85 NW9G20    30.06R WCI  29
$$

WIZ029-030-035-036-043>047-310400-
CENTRAL WISCONSIN

CITY           SKY/WX    TMP DP  RH WIND       PRES   REMARKS
WAUSAU         CLOUDY    40  30  67 NW14      30.05R WCI  32
MOSINEE        MOCLDY    39  32  75 NW13      30.06S WCI  32
MARSHFIELD     LGT RAIN  38  33  82 N22G32    30.09R WCI  27
STEVENS POINT  PTCLDY    39  30  69 NW10G16   30.06S WCI  33
WAUPACA        CLOUDY    45  33  64 NW10      30.05S
WAUTOMA        NOT AVBL
WISC RAPIDS    CLOUDY    42  32  67 NW16G22   30.09R
CAMP DOUGLAS   NOT AVBL
$$

WIZ011>013-019>022-031-037>040-048>050-310400-
NORTHEAST WISCONSIN

CITY           SKY/WX    TMP DP  RH WIND       PRES   REMARKS
ANTIGO         MOCLDY    36  30  79 NW12      30.02F WCI  28
SHAWANO        CLOUDY    45  32  61 NW9G17    30.03S
OCONTO         CLOUDY    43  32  66 NW6       30.01R
STURGEON BAY   CLOUDY    43  30  61 NW10      30.00R
GREEN BAY      CLOUDY    44  34  67 NW12      30.02R
MANITOWOC      NOT AVBL
APPLETON       MOCLDY    43  30  61 NW13      30.03R
CLINTONVILLE   CLOUDY    43  32  65 NW13      30.03S
OSHKOSH        CLOUDY    45  34  65 NW12      30.03R
$$

WIZ032>034-041-042-053>061-310400-
SOUTHWEST WISCONSIN

CITY           SKY/WX    TMP DP  RH WIND       PRES   REMARKS
LA CROSSE      CLOUDY    46  31  55 N15       30.15R
SPARTA         CLOUDY    43  31  62 NW13      30.14R
VIROQUA        CLOUDY    42  35  73 N17G26    30.11R
BOSCOBEL       CLOUDY    48  37  65 NW8       30.12R
PRAIRIE DU CHI CLOUDY    47  37  68 NW7       30.12R
PLATTEVILLE    CLOUDY    46  39  76 W6        30.10R
$$

WIZ056-057-062-063-064-067-068-310400-
SOUTH CENTRAL WISCONSIN

CITY           SKY/WX    TMP DP  RH WIND       PRES   REMARKS
REEDSBURG      CLOUDY    45  37  72 NW7       30.07R
BARABOO/DELLS  CLOUDY    45  35  66 NW7       30.07R
LONE ROCK      NOT AVBL
MINERAL POINT  LGT RAIN  45  37  76 NW5       30.08S
MADISON        LGT RAIN  46  37  71 NW7       30.06R
MIDDLETON      CLOUDY    46  37  70 W8        30.06S
WATERTOWN      DRIZZLE   44  38  78 W6        30.04S
MONROE         CLOUDY    45  37  76 W7        30.06S
JANESVILLE     CLOUDY    45  36  70 W5        30.05S
$$

WIZ051-052-058>065-066-070>072-310400-
SOUTHEAST WISCONSIN

CITY           SKY/WX    TMP DP  RH WIND       PRES   REMARKS
MILWAUKEE      CLOUDY    48  34  58 W7        30.03S
WAUKESHA       CLOUDY    43  34  70 W9        30.04R
MILWAUKEE/TIMM CLOUDY    45  34  65 W8        30.03S
RACINE         CLOUDY    47  35  63 W6        30.04S
BURLINGTON     CLOUDY    44  35  71 W6        30.03F
KENOSHA        CLOUDY    44  36  73 W6        30.04S
FOND DU LAC    CLOUDY    45  33  63 NW20G25   30.03R
SHEBOYGAN      CLOUDY    46  34  62 NW13      30.01R
WEST BEND      CLOUDY    45  34  65 W9G17     30.02R
JUNEAU         CLOUDY    44  36  73 W6        30.04S
$$

LSZ147-162-310400-
LAKE SUPERIOR

STATION/POSITION TIME  TEMP    WIND        PRES    WAVE
                       AIR SEA DIR/SP/G            HT/PER
                 (UTC) (F)     (DEG/KT/KT) (MB)    (FT/S)
W MID LAKE BUOY  0150   36 45  340/ 29/ 35 1019.3R   4/ 5
DEVILS ISLAND    0200   36     350/ 36/ 42 1022.5R
PORT WING        0200   36     340/ 28/ 34 1023.7R
SAXON HARBOR     0213   37     330/ 24/ 35 1020.3R
$$

LMZ867-665-643>646-310400-
LAKE MICHIGAN

STATION/POSITION TIME  TEMP    WIND        PRES    WAVE
                       AIR SEA DIR/SP/G            HT/PER
                 (UTC) (F)     (DEG/KT/KT) (MB)    (FT/S)
CHAMBERS ISLAND  0200   44     300/ 10/ 14 1015.6F
N MID LAKE BUOY  0150   46 51  300/ 16/ 19 1014.8F   2/ 3
NORTHPORT PIER   0200   44     300/ 15/ 19 1015.2F
KEWAUNEE LAKESHO 0100                      1015.1F
SHEBOYGAN LAKESH 0200   47 50  240/  8/ 10 1016.5F
PORT WASHINGTON  0240   48     260/  6/  9 1016.9S
ATWATER BUOY     0200   50     260/  8/ 10 1017.7F
MILWAUKEE LAKESH 0200   49     270/  8/ 10   N/A
S MID LAKE BUOY  0150   50 53  290/ 10/ 12 1017.0F   1/ 4
KENOSHA   LAKESH 0200   48     260/  5/  7 1016.9F
$$

TC  - TEMPERATURE IN CELSIUS
VSB - VISIBILITY IN STATUTE MILES
WCI - WIND CHILL INDEX
HX  - HEAT INDEX




USA.gov is the U.S. government's official web portal to all federal, state and local government web resources and services.